Kathmandu/Tribhuvan International Airport

Airport
ICAO code: 
VNKT
IATA Code: 
KTM
Summary
ICAO Region: 
APAC
Territory: 
Location: 
Kathmandu,
Serving: 
Kathmandu
Elevation: 
4390 ft
Coordinates: 
Aerial View: 
27° 41' 49.992" N, 85° 21' 28.008" E
Metar
Observation
VNKT 290250Z 09003KT 6000 -RA FEW008 FEW025CB SCT030 BKN100 21/21 Q1009 NOSIG CB TO S SW AND W
Station
Kathmandu Airport
Date/Time
2022-06-29 02:50:00
Wind direction
90°
Wind speed
03 kts
Lowest cloud amount
few clouds
Temperature
21°C
Dew point
21°C
Humidity
100%
QNH
1009 hPa
Weather condition
n/a

International airport serving the capital city of Nepal.

Climatology

Humid “subtropical” climate (Köppen climate classification Cwa) - characterized by hot, humid summers and cool winters. Significant amounts of precipitation occur in all seasons in most areas. Humid subtropical climates in Asia differ from those in other continents, in that they generally have a pronounced dry winter.

Runways

Designator Length Width Surface Rops
2/20 3050 45 ASP Yes/Yes
Airport map: 
Aerial View: 

SKYbrary Partners:

Safety knowledge contributed by: